Location: Etzleinsberg
(48.4833°N, 14.0333°E)
Time: 07:25:16
(UTC+00:00)

STARLINK-75 - Pass Details

Date: 07 June 2020
Orbit: 360 x 370 km, 53.0° (Epoch: 12 July)

Event Time Altitude Azimuth Distance (km) Brightness Sun altitude
Exits shadow 00:22:51 39° 247° (WSW) 600 3.5 -16.5°
Maximum altitude 00:23:54 86° 333° (NNW) 393 2.8 -16.5°
Drops below altitude 10° 00:27:04 10° 64° (ENE) 1,412 6.4 -16.3°
Sets 00:29:07 0° 65° (ENE) 2,264 7.5 -16.2°
